Weather observations for the past three days for
Fort Lauderdale/Hollywood International Airport
Imperial (Metric)
Date Time (edt) Wind (mph) Vis. (mi.) Weather Sky Cond. Temperature (ºF) Relative Humidity Wind Chill (°F) Heat Index (°F) Pressure Precipitation (in)
Air Dwpt 6 hour altimeter (in) sea level (mb) 1 hr 3 hr 6 hr
Max. Min.
18 01:53 E 10 10.00 Partly Cloudy SCT250 84 75.9 86 82 77% 93 30.03 1016.7
18 00:53 SE 9 10.00 A Few Clouds FEW020 FEW250 82.9 73.9 74% 89 30.05 1017.5
17 23:53 SE 13 10.00 Partly Cloudy SCT020 82.9 73.9 74% 89 30.06 1017.6
17 22:53 E 13 10.00 Partly Cloudy SCT022 SCT250 86 77 75% 97 30.08 1018.4
17 21:53 E 10 10.00 Partly Cloudy FEW022 FEW080 SCT250 84.9 75.9 75% 94 30.08 1018.5
17 20:53 E 9 10.00 Partly Cloudy FEW023 SCT250 84.9 75.9 75% 94 30.07 1018.3
17 19:53 E 13 10.00 Partly Cloudy FEW023 SCT250 86 75.9 90 86 72% 96 30.06 1017.7
17 18:53 E 13 10.00 Partly Cloudy FEW023 SCT028 SCT250 87.1 77 72% 99 30.04 1017.1
17 17:53 E 13 10.00 Mostly Cloudy SCT025 BKN250 87.1 77 72% 99 30.03 1016.6
17 16:53 E 14 10.00 Partly Cloudy FEW025 SCT030 SCT250 89.1 75 63% 99 30.04 1017.0
17 15:53 SE 10 10.00 Partly Cloudy FEW024 SCT030 SCT250 89.1 75.9 65% 100 30.04 1017.0
17 14:53 E 8 G 20 10.00 Partly Cloudy SCT029 SCT065 SCT250 88 77 70% 100 30.05 1017.3
17 13:53 E 14 10.00 Partly Cloudy SCT028 SCT070 SCT250 89.1 75.9 90 84 65% 100 30.06 1017.8
17 12:53 E 13 G 21 10.00 Partly Cloudy SCT025 SCT075 SCT250 89.1 77 68% 102 30.07 1018.1
17 11:53 E 13 10.00 Partly Cloudy SCT025 SCT039 SCT100 88 73.9 63% 97 30.08 1018.5
17 10:53 E 15 10.00 Mostly Cloudy FEW023 SCT041 BKN060 86 75.9 72% 96 30.09 1018.7
17 09:53 E 6 10.00 Mostly Cloudy SCT032CB SCT055 BKN250 86 75.9 72% 96 30.08 1018.4
17 08:53 E 10 10.00 Mostly Cloudy SCT025CB BKN034 BKN055 84.9 75 72% 93 30.08 1018.3
17 07:53 E 6 10.00 Partly Cloudy SCT027 SCT250 84.9 73.9 84.9 82.9 70% 92 30.06 1017.7
17 06:53 E 6 10.00 Partly Cloudy FEW028 SCT034 SCT250 82.9 73 72% 89 30.05 1017.3
17 05:53 SE 5 10.00 Partly Cloudy SCT025 82.9 73.9 74% 89 30.02 1016.5
17 04:53 SE 8 10.00 Partly Cloudy SCT026 82.9 73.9 74% 89 30.01 1016.2
17 03:53 SE 12 10.00 Partly Cloudy FEW020 SCT250 82.9 73.9 74% 89 30 1015.8
17 02:53 SE 12 10.00 Partly Cloudy SCT250 84 73.9 72% 91 30.01 1016.2
17 01:53 SE 10 10.00 Partly Cloudy SCT250 84 73.9 86 84 72% 91 30.03 1016.7
17 00:53 SE 10 10.00 Mostly Cloudy FEW025 BKN250 84 73.9 72% 91 30.04 1017.2
16 23:53 SE 9 10.00 Mostly Cloudy FEW025 BKN250 84 75 74% 92 30.07 1018.0
16 22:53 E 10 10.00 Mostly Cloudy FEW022 BKN250 84.9 73.9 70% 92 30.06 1017.9
16 21:53 E 8 10.00 Partly Cloudy FEW023 SCT250 84 75 74% 92 30.08 1018.4
16 20:53 SE 12 10.00 Partly Cloudy FEW023 FEW190 SCT250 84.9 75 72% 93 30.07 1018.1
16 19:53 E 13 10.00 Mostly Cloudy SCT024 BKN250 84.9 75 90 84.9 72% 93 30.06 1017.9
16 18:53 E 12 10.00 Mostly Cloudy FEW024 SCT028 BKN250 86 75 70% 95 30.04 1016.9
16 17:53 E 13 10.00 Mostly Cloudy SCT026 BKN250 88 75.9 68% 99 30.02 1016.3
16 16:53 E 12 G 20 10.00 Partly Cloudy SCT028 SCT250 88 75.9 68% 99 30.02 1016.4
16 15:53 SE 15 G 21 10.00 Partly Cloudy FEW035 SCT250 89.1 73.9 61% 98 30.03 1016.6
16 14:53 E 13 G 21 10.00 Partly Cloudy SCT035 SCT250 89.1 73 59% 97 30.05 1017.3
16 13:53 E 12 G 21 10.00 Mostly Cloudy SCT031 SCT060 BKN250 88 73.9 90 84.9 63% 97 30.07 1018.0
16 12:53 E 12 10.00 Mostly Cloudy SCT030 SCT055 BKN250 89.1 75 63% 99 30.08 1018.4
16 11:53 E 10 10.00 Partly Cloudy SCT033 SCT200 89.1 75 63% 99 30.08 1018.5
16 10:53 E 12 10.00 Mostly Cloudy SCT029 SCT038 BKN075 89.1 73 59% 97 30.08 1018.5
16 09:53 SE 13 10.00 Partly Cloudy SCT028 SCT065 87.1 75 67% 97 30.08 1018.4
16 08:53 E 10 10.00 Partly Cloudy SCT025 SCT034 SCT055 86 75 70% 95 30.07 1018.1
16 07:53 SE 9 10.00 Partly Cloudy SCT019 SCT037 SCT060 84.9 75.9 84.9 81 75% 94 30.05 1017.4
16 06:53 SE 6 10.00 Mostly Cloudy FEW028 SCT060 BKN250 82.9 73.9 74% 89 30.03 1016.8
16 05:53 SE 7 10.00 Mostly Cloudy SCT025 BKN035 BKN250 82.9 75.9 79% 91 30.02 1016.3
16 04:53 SE 3 10.00 Mostly Cloudy FEW024 SCT030 BKN048 BKN250 82 75.9 82% 89 30.01 1015.9
16 03:53 SE 10 10.00 Mostly Cloudy SCT026 SCT045 BKN250 82 75 79% 89 30.01 1015.9
16 02:53 SE 8 10.00 Mostly Cloudy FEW022 SCT032 BKN250 84 77 80% 94 30.02 1016.3
16 01:53 SE 8 10.00 Mostly Cloudy FEW025 SCT040 BKN250 82.9 78.1 86 82.9 85% 93 30.03 1016.8 0.03 0.03
16 00:53 E 10 10.00 Partly Cloudy FEW023 SCT036 SCT250 84 77 80% 94 30.05 1017.3
15 23:53 SE 7 10.00 Light Rain SCT023 BKN034 BKN250 84.9 78.1 80% 97 30.07 1018.0
15 22:53 SE 7 10.00 Partly Cloudy FEW020 FEW080 SCT250 84.9 75.9 75% 94 30.05 1017.5
15 21:53 E 7 10.00 Mostly Cloudy BKN019 BKN048 BKN250 84.9 78.1 80% 97 30.06 1017.7
15 20:53 E 12 10.00 Mostly Cloudy SCT022 BKN250 84.9 75.9 75% 94 30.05 1017.2
15 19:53 E 9 10.00 Mostly Cloudy FEW018 FEW190 BKN250 84.9 77 89.1 84.9 77% 95 30.02 1016.3
15 18:53 E 10 10.00 Mostly Cloudy FEW025 FEW190 BKN250 86 77 75% 97 30.01 1016.0
15 17:53 E 10 10.00 Mostly Cloudy FEW025 FEW170 BKN250 87.1 75.9 70% 98 30 1015.7
15 16:53 SE 10 10.00 Mostly Cloudy FEW028 SCT170 BKN250 88 75.9 68% 99 30.02 1016.4
15 15:53 SE 10 10.00 Mostly Cloudy FEW026 FEW080 SCT150 BKN250 88 77 70% 100 30.04 1017.0
15 14:53 SE 13 10.00 Mostly Cloudy FEW025 FEW080 FEW150 BKN250 87.1 77 72% 99 30.06 1017.8
15 13:53 SE 9 10.00 Mostly Cloudy FEW025 FEW080 SCT150 BKN250 86 75.9 90 84.9 72% 96 30.07 1018.0
15 12:53 SE 12 10.00 Mostly Cloudy FEW020 FEW070 BKN150 BKN250 90 75.9 63% 102 30.09 1018.6
15 11:53 E 9 10.00 Thunderstorm in Vicinity SCT020CB SCT090 BKN150 BKN250 89.1 78.1 70% 103 30.1 1019.0
15 10:53 E 15 10.00 Partly Cloudy SCT021 SCT090 SCT150 SCT250 88 78.1 73% 102 30.11 1019.3
15 09:53 E 10 10.00 Partly Cloudy SCT020 SCT250 87.1 77 72% 99 30.1 1019.0
15 08:53 NE 8 10.00 A Few Clouds FEW022 FEW250 87.1 77 72% 99 30.08 1018.6
15 07:53 NE 7 10.00 A Few Clouds FEW025 FEW250 84.9 75 84.9 81 72% 93 30.08 1018.4
15 06:53 NE 6 10.00 A Few Clouds FEW025 FEW250 81 73.9 79% 86 30.05 1017.4
15 05:53 NE 3 10.00 Partly Cloudy FEW025 SCT250 82 75 79% 89 30.04 1017.1
15 04:53 E 6 10.00 Partly Cloudy FEW025 SCT250 82 75 79% 89 30.04 1017.1
15 03:53 SE 6 10.00 Partly Cloudy FEW025 SCT250 82.9 75 77% 90 30.05 1017.4
15 02:53 E 8 10.00 Partly Cloudy FEW025 FEW035 SCT250 84 75 74% 92 30.06 1017.7
Date Time (edt) Wind (mph) Vis. (mi.) Weather Sky Cond. Air Dwpt Max. Min. Relative Humidity Wind Chill (°F) Heat Index (°F) altimeter (in) sea level (mb) 1 hr 3 hr 6 hr
6 hour
Temperature (ºF) Pressure Precipitation (in)